{"data":{"norad_id":57973,"intl_designator":"2023-151K","name":"STARLINK-30502","alt_names":[],"object_type":"PAYLOAD","status":"ACTIVE","operator":null,"country":"US","launch_date":"2023-09-30","launch_site_code":"AFETR","launch_vehicle":null,"mission":null,"orbit_class":"UNKNOWN","rcs_meters":null,"size_class":null,"mass_kg":null,"dimensions":null,"purposes":["comms"],"wikipedia_slug":null,"has_3d_model":false,"image_url":null,"decayed_at":null,"tle_current":{"epoch":"2026-09-20T10:49:51.621024Z","epoch_age_seconds":141859,"freshness":"FRESH","line1":"1 57973U 23151K   26263.45129191 -.00001469  00000+0 -43856-4 0  9995","line2":"2 57973  43.0016 316.0026 0001141 267.9430  92.1291 15.27578313165551","mean_motion":15.27578313,"eccentricity":0.0001141,"inclination_deg":43.0016,"raan_deg":316.0026,"arg_perigee_deg":267.943,"mean_anomaly_deg":92.1291,"bstar":-4.3856e-5,"rev_number":16555,"period_min":94.266852818301,"perigee_km":482.27128561926,"apogee_km":483.83700943913,"semimajor_km":6861.1911475292,"source":"CELESTRAK","updated_at":"2026-09-21T09:00:33.750217Z"}}}